Regional Weather Roundup
Issued by NWS

Home | Current Version | Previous Version | Graphics & Text | Print | Product List | Glossary On
Versions: 1 2 3 4 5 6 7 8 9 10 11 12 13 14 15 16 17 18 19 20 21 22 23 24 25 26 27
000
ASUS45 KBOI 211210
RWRID

IDAHO REGIONAL WEATHER ROUNDUP
NATIONAL WEATHER SERVICE BOISE ID
600 AM MDT THU SEP 21 2017

NOTE: "FAIR" INDICATES FEW OR NO CLOUDS BELOW 12000 FEET
WITH NO SIGNIFICANT WEATHER AND/OR OBSTRUCTIONS TO VISIBILITY

IDZ012-014-211300-
SOUTHWEST IDAHO


CITY           SKY/WX    TMP DP  RH WIND       PRES   REMARKS
BOISE          CLOUDY    47  44  90 CALM      29.79R
CALDWELL       CLOUDY    47  45  93 CALM      29.80R
MOUNTAIN HOME  CLOUDY    47  47 100 E6        29.79R
$$

IDZ016-017-211300-
SOUTHCENTRAL IDAHO


CITY           SKY/WX    TMP DP  RH WIND       PRES   REMARKS
BURLEY         LGT RAIN  43  42  97 NW8       29.78R
JEROME         LGT RAIN  42  42 100 SW7       29.80S
TWIN FALLS     LGT RAIN  41  41 100 SW9       29.80S
$$

IDZ019>023-211300-
SOUTHEAST IDAHO


CITY           SKY/WX    TMP DP  RH WIND       PRES   REMARKS
IDAHO FALLS    LGT RAIN  41  39  93 S9        29.77S
POCATELLO      LGT RAIN  41  39  93 S6        29.79R
REXBURG        LGT RAIN  39  38  96 S8        29.77S WCI  33
$$

IDZ006-010-011-018-031-032-211300-
CENTRAL IDAHO MOUNTAINS


CITY           SKY/WX    TMP DP  RH WIND       PRES   REMARKS
MCCALL         CLOUDY    37  36  96 CALM      29.77R
HAILEY         LGT RAIN  39  37  93 S3        29.79S
STANLEY          N/A     34  33  96 CALM      29.78S
SALMON         CLOUDY    38  36  92 CALM      29.81R
CHALLIS        CLOUDY    39  35  86 CALM      29.77S
$$

IDZ002-004-006-007-026-211300-
NORTHERN IDAHO


CITY           SKY/WX    TMP DP  RH WIND       PRES   REMARKS
LEWISTON       CLOUDY    44  42  93 S3        29.82R
LOWELL           N/A     45  42  89 CALM      29.86R
COEUR D`ALENE  CLOUDY    44  40  85 S7        29.81R
MULLAN PASS    FOG       30  28  92 VRB3      29.76S VSB 1
$$




USA.gov is the U.S. government's official web portal to all federal, state and local government web resources and services.